Retour au catalogue

DELTA 1 DEB

ActifSSO
NORAD 7072·DEBRIS·🇺🇸 United States

Lancé Nov 6, 1973 depuis Vandenberg Space Force Base

Loading…

Prochains Passages (prochaines 24 heures)

TLE

FraisSource: Space-Track

Époque: Sep 14, 2026, 09:34 UTC

1 07072U 73086BQ  26257.39919378 -.00000027  00000-0  12388-3 0  9996
2 07072 101.8492 213.1872 0011177  42.3017 109.4851 12.42685280396397

Suivez DELTA 1 DEB en temps réel avec AllMySat

Download on the App Store